User: anonymous
Location: Mentone
(34.5413°N, 85.5351°W)
Time: 05:26:10
(UTC-05:00)
Language:

Okean O Rocket - Orbit

View from above orbital plane
View from above orbital plane
View from above satellite
View from above satellite

Ground track
Ground track

The orbit data is extracted from the following two-line orbital elements,

1 25861U 99039B   14274.81612700  .00000690  00000-0  10319-3 0  7546
2 25861 097.9630 232.3947 0016323 036.8570 019.2673 14.77788178819613
Epoch (UTC): 01 October 2014 19:35:13
Eccentricity: 0.0016323
inclination: 97.9630°
perigee height: 625 km
apogee height: 648 km
right ascension of ascending node: 232.3947°
argument of perigee: 36.8570°
revolutions per day: 14.77788178
mean anomaly at epoch: 19.2673°
orbit number at epoch: 81961

The dashed part of the orbit path shows where the satellite is in the earth's shadow,  

DLR